Flag for U.S.A. Weather past 2 weeks in Durango, Colorado, U.S.A.

Now
65 °F

Clear.


Feels Like: 65 °F
Forecast: 57 / 83 °F
Wind: No wind

Location: Durango-La Plata County Airport

Current Time: Jul 25, 2014 at 5:58:26 AM

Latest Report: Jul 25, 2014 at 4:53 AM


Visibility: 10 mi

Pressure: 29.98 "Hg

Humidity: 61%

Dew point: 51 °F

Location of DurangoLocation

Historic Weather in Durango — Graph

°F

Durango temperature yesterday

Maximum temperature yesterday: 87 °F (at 3:53 PM)
Minimum temperature yesterday: 58 °F (at 5:53 AM)
Average temperature yesterday: 71 °F

Past Weeks' High & Low Weather Summary

 TemperatureHumidityPressure
High94 °F (Jul 22, 5:53 PM)97% (Jul 12, 4:53 AM)30.41 "Hg (Jul 12, 4:53 AM)
Low53 °F (Jul 18, 5:53 AM)8% (Jul 22, 5:53 PM)29.76 "Hg (Jul 17, 4:53 PM)
Average71 °F47%29.99 "Hg
* Reported Jul 10 4:53 AM — Jul 25 4:53 AM, Durango, Weather by CustomWeather, © 2014

Note: Actual official high and low records may vary slightly from our data, if they occured in-between our weather recording intervals... More about our weather records

Advertising

Durango weather history for previous 24 hours

 ConditionsComfort  
Time TempWeatherWind HumidityBarometerVisibility
4:53 AM
Jul 25
65 °FClear.No wind61%29.98 "Hg10 mi
3:53 AM66 °FClear.3 mph56%29.94 "Hg10 mi
2:53 AM68 °FPassing clouds.6 mph53%29.96 "Hg10 mi
1:53 AM67 °FClear.5 mph57%29.98 "Hg10 mi
12:53 AM69 °FClear.7 mph51%30.00 "Hg10 mi
11:53 PM
Jul 24
69 °FPassing clouds.9 mph55%29.99 "Hg10 mi
10:53 PM68 °FPassing clouds.No wind61%30.00 "Hg10 mi
9:53 PM68 °FPassing clouds.12 mph63%29.99 "Hg10 mi
8:53 PM69 °FLight rain. Overcast.18 mph59%30.01 "Hg10 mi
7:53 PM73 °FPassing clouds.16 mph51%29.99 "Hg10 mi
6:53 PM72 °FOvercast.9 mph59%30.00 "Hg10 mi
5:53 PM79 °FBroken clouds.9 mph39%29.96 "Hg10 mi
4:53 PM80 °FScattered clouds.16 mph35%29.96 "Hg10 mi
3:53 PM87 °FPartly sunny.10 mph21%29.93 "Hg10 mi
2:53 PM85 °FBroken clouds.10 mph25%29.96 "Hg10 mi
1:53 PM84 °FPassing clouds.5 mph26%30.01 "Hg10 mi
12:53 PM81 °FPassing clouds.5 mph32%30.04 "Hg10 mi
11:53 AM78 °FPartly sunny.6 mph37%30.06 "Hg10 mi
10:53 AM77 °FSunny.3 mph37%30.08 "Hg10 mi
9:53 AM74 °FSunny.5 mph41%30.09 "Hg10 mi
8:53 AM68 °FSunny.No wind57%30.11 "Hg10 mi
7:53 AM63 °FSunny.No wind68%30.11 "Hg10 mi
6:53 AM58 °FClear.3 mph78%30.11 "Hg10 mi
5:53 AM58 °FClear.No wind75%30.11 "Hg10 mi
Weather by CustomWeather, © 2014

See weather overviewHow to use our weather pages